Index of /20260507/WXO-DD/model_rdps/10km/06/082
Name Last modified Size Description
Parent Directory -
20260507T06Z_MSC_RDPS_AbsoluteVorticity_IsbL-0250_RLatLon0.09_PT082H.grib2 2026-05-07 09:04 603K
20260507T06Z_MSC_RDPS_AbsoluteVorticity_IsbL-0500_RLatLon0.09_PT082H.grib2 2026-05-07 09:04 566K
20260507T06Z_MSC_RDPS_AbsoluteVorticity_IsbL-0700_RLatLon0.09_PT082H.grib2 2026-05-07 09:04 608K
20260507T06Z_MSC_RDPS_AbsoluteVorticity_IsbL-0850_RLatLon0.09_PT082H.grib2 2026-05-07 09:04 785K
20260507T06Z_MSC_RDPS_AirTemp_AGL-120m_RLatLon0.09_PT082H.grib2 2026-05-07 09:04 383K
20260507T06Z_MSC_RDPS_AirTemp_AGL-2m_RLatLon0.09_PT082H.grib2 2026-05-07 09:04 624K
20260507T06Z_MSC_RDPS_AirTemp_AGL-40m_RLatLon0.09_PT082H.grib2 2026-05-07 09:04 391K
20260507T06Z_MSC_RDPS_AirTemp_AGL-80m_RLatLon0.09_PT082H.grib2 2026-05-07 09:04 386K
20260507T06Z_MSC_RDPS_AirTemp_IsbL-0001_RLatLon0.09_PT082H.grib2 2026-05-07 09:04 249K
20260507T06Z_MSC_RDPS_AirTemp_IsbL-0005_RLatLon0.09_PT082H.grib2 2026-05-07 09:04 341K
20260507T06Z_MSC_RDPS_AirTemp_IsbL-0010_RLatLon0.09_PT082H.grib2 2026-05-07 09:04 389K
20260507T06Z_MSC_RDPS_AirTemp_IsbL-0020_RLatLon0.09_PT082H.grib2 2026-05-07 09:04 316K
20260507T06Z_MSC_RDPS_AirTemp_IsbL-0030_RLatLon0.09_PT082H.grib2 2026-05-07 09:04 334K
20260507T06Z_MSC_RDPS_AirTemp_IsbL-0050_RLatLon0.09_PT082H.grib2 2026-05-07 09:04 306K
20260507T06Z_MSC_RDPS_AirTemp_IsbL-0100_RLatLon0.09_PT082H.grib2 2026-05-07 09:04 425K
20260507T06Z_MSC_RDPS_AirTemp_IsbL-0150_RLatLon0.09_PT082H.grib2 2026-05-07 09:04 399K
20260507T06Z_MSC_RDPS_AirTemp_IsbL-0175_RLatLon0.09_PT082H.grib2 2026-05-07 09:04 395K
20260507T06Z_MSC_RDPS_AirTemp_IsbL-0200_RLatLon0.09_PT082H.grib2 2026-05-07 09:04 402K
20260507T06Z_MSC_RDPS_AirTemp_IsbL-0225_RLatLon0.09_PT082H.grib2 2026-05-07 09:04 405K
20260507T06Z_MSC_RDPS_AirTemp_IsbL-0250_RLatLon0.09_PT082H.grib2 2026-05-07 09:04 418K
20260507T06Z_MSC_RDPS_AirTemp_IsbL-0275_RLatLon0.09_PT082H.grib2 2026-05-07 09:04 400K
20260507T06Z_MSC_RDPS_AirTemp_IsbL-0300_RLatLon0.09_PT082H.grib2 2026-05-07 09:04 404K
20260507T06Z_MSC_RDPS_AirTemp_IsbL-0350_RLatLon0.09_PT082H.grib2 2026-05-07 09:04 415K
20260507T06Z_MSC_RDPS_AirTemp_IsbL-0400_RLatLon0.09_PT082H.grib2 2026-05-07 09:04 419K
20260507T06Z_MSC_RDPS_AirTemp_IsbL-0450_RLatLon0.09_PT082H.grib2 2026-05-07 09:04 427K
20260507T06Z_MSC_RDPS_AirTemp_IsbL-0500_RLatLon0.09_PT082H.grib2 2026-05-07 09:04 438K
20260507T06Z_MSC_RDPS_AirTemp_IsbL-0550_RLatLon0.09_PT082H.grib2 2026-05-07 09:04 455K
20260507T06Z_MSC_RDPS_AirTemp_IsbL-0600_RLatLon0.09_PT082H.grib2 2026-05-07 09:04 472K
20260507T06Z_MSC_RDPS_AirTemp_IsbL-0650_RLatLon0.09_PT082H.grib2 2026-05-07 09:04 451K
20260507T06Z_MSC_RDPS_AirTemp_IsbL-0700_RLatLon0.09_PT082H.grib2 2026-05-07 09:04 515K
20260507T06Z_MSC_RDPS_AirTemp_IsbL-0750_RLatLon0.09_PT082H.grib2 2026-05-07 09:04 523K
20260507T06Z_MSC_RDPS_AirTemp_IsbL-0800_RLatLon0.09_PT082H.grib2 2026-05-07 09:04 583K
20260507T06Z_MSC_RDPS_AirTemp_IsbL-0850_RLatLon0.09_PT082H.grib2 2026-05-07 09:04 641K
20260507T06Z_MSC_RDPS_AirTemp_IsbL-0875_RLatLon0.09_PT082H.grib2 2026-05-07 09:04 661K
20260507T06Z_MSC_RDPS_AirTemp_IsbL-0900_RLatLon0.09_PT082H.grib2 2026-05-07 09:04 537K
20260507T06Z_MSC_RDPS_AirTemp_IsbL-0925_RLatLon0.09_PT082H.grib2 2026-05-07 09:04 672K
20260507T06Z_MSC_RDPS_AirTemp_IsbL-0950_RLatLon0.09_PT082H.grib2 2026-05-07 09:04 540K
20260507T06Z_MSC_RDPS_AirTemp_IsbL-0970_RLatLon0.09_PT082H.grib2 2026-05-07 09:04 535K
20260507T06Z_MSC_RDPS_AirTemp_IsbL-0985_RLatLon0.09_PT082H.grib2 2026-05-07 09:04 524K
20260507T06Z_MSC_RDPS_AirTemp_IsbL-1000_RLatLon0.09_PT082H.grib2 2026-05-07 09:04 510K
20260507T06Z_MSC_RDPS_AirTemp_IsbL-1015_RLatLon0.09_PT082H.grib2 2026-05-07 09:04 509K
20260507T06Z_MSC_RDPS_Albedo_Sfc_RLatLon0.09_PT082H.grib2 2026-05-07 09:04 160K
20260507T06Z_MSC_RDPS_CAPE_Sfc_RLatLon0.09_PT082H.grib2 2026-05-07 09:04 1.9M
20260507T06Z_MSC_RDPS_CIN_Sfc_RLatLon0.09_PT082H.grib2 2026-05-07 09:04 1.3M
20260507T06Z_MSC_RDPS_CloudWater_EAtm_RLatLon0.09_PT082H.grib2 2026-05-07 09:04 226K
20260507T06Z_MSC_RDPS_ConvectivePrecip-Accum_Sfc_RLatLon0.09_PT082H.grib2 2026-05-07 09:04 1.3M
20260507T06Z_MSC_RDPS_DewPointDepression_AGL-2m_RLatLon0.09_PT082H.grib2 2026-05-07 09:04 421K
20260507T06Z_MSC_RDPS_DewPointDepression_IsbL-0001_RLatLon0.09_PT082H.grib2 2026-05-07 09:04 193
20260507T06Z_MSC_RDPS_DewPointDepression_IsbL-0005_RLatLon0.09_PT082H.grib2 2026-05-07 09:04 193
20260507T06Z_MSC_RDPS_DewPointDepression_IsbL-0010_RLatLon0.09_PT082H.grib2 2026-05-07 09:04 193
20260507T06Z_MSC_RDPS_DewPointDepression_IsbL-0020_RLatLon0.09_PT082H.grib2 2026-05-07 09:04 193
20260507T06Z_MSC_RDPS_DewPointDepression_IsbL-0030_RLatLon0.09_PT082H.grib2 2026-05-07 09:04 193
20260507T06Z_MSC_RDPS_DewPointDepression_IsbL-0050_RLatLon0.09_PT082H.grib2 2026-05-07 09:04 106K
20260507T06Z_MSC_RDPS_DewPointDepression_IsbL-0100_RLatLon0.09_PT082H.grib2 2026-05-07 09:04 110K
20260507T06Z_MSC_RDPS_DewPointDepression_IsbL-0150_RLatLon0.09_PT082H.grib2 2026-05-07 09:04 140K
20260507T06Z_MSC_RDPS_DewPointDepression_IsbL-0175_RLatLon0.09_PT082H.grib2 2026-05-07 09:04 165K
20260507T06Z_MSC_RDPS_DewPointDepression_IsbL-0200_RLatLon0.09_PT082H.grib2 2026-05-07 09:04 208K
20260507T06Z_MSC_RDPS_DewPointDepression_IsbL-0225_RLatLon0.09_PT082H.grib2 2026-05-07 09:04 257K
20260507T06Z_MSC_RDPS_DewPointDepression_IsbL-0250_RLatLon0.09_PT082H.grib2 2026-05-07 09:04 300K
20260507T06Z_MSC_RDPS_DewPointDepression_IsbL-0275_RLatLon0.09_PT082H.grib2 2026-05-07 09:04 306K
20260507T06Z_MSC_RDPS_DewPointDepression_IsbL-0300_RLatLon0.09_PT082H.grib2 2026-05-07 09:04 320K
20260507T06Z_MSC_RDPS_DewPointDepression_IsbL-0350_RLatLon0.09_PT082H.grib2 2026-05-07 09:04 325K
20260507T06Z_MSC_RDPS_DewPointDepression_IsbL-0400_RLatLon0.09_PT082H.grib2 2026-05-07 09:04 333K
20260507T06Z_MSC_RDPS_DewPointDepression_IsbL-0450_RLatLon0.09_PT082H.grib2 2026-05-07 09:04 340K
20260507T06Z_MSC_RDPS_DewPointDepression_IsbL-0500_RLatLon0.09_PT082H.grib2 2026-05-07 09:04 343K
20260507T06Z_MSC_RDPS_DewPointDepression_IsbL-0550_RLatLon0.09_PT082H.grib2 2026-05-07 09:04 353K
20260507T06Z_MSC_RDPS_DewPointDepression_IsbL-0600_RLatLon0.09_PT082H.grib2 2026-05-07 09:04 367K
20260507T06Z_MSC_RDPS_DewPointDepression_IsbL-0650_RLatLon0.09_PT082H.grib2 2026-05-07 09:04 376K
20260507T06Z_MSC_RDPS_DewPointDepression_IsbL-0700_RLatLon0.09_PT082H.grib2 2026-05-07 09:04 388K
20260507T06Z_MSC_RDPS_DewPointDepression_IsbL-0750_RLatLon0.09_PT082H.grib2 2026-05-07 09:04 409K
20260507T06Z_MSC_RDPS_DewPointDepression_IsbL-0800_RLatLon0.09_PT082H.grib2 2026-05-07 09:04 453K
20260507T06Z_MSC_RDPS_DewPointDepression_IsbL-0850_RLatLon0.09_PT082H.grib2 2026-05-07 09:04 476K
20260507T06Z_MSC_RDPS_DewPointDepression_IsbL-0875_RLatLon0.09_PT082H.grib2 2026-05-07 09:04 471K
20260507T06Z_MSC_RDPS_DewPointDepression_IsbL-0900_RLatLon0.09_PT082H.grib2 2026-05-07 09:04 459K
20260507T06Z_MSC_RDPS_DewPointDepression_IsbL-0925_RLatLon0.09_PT082H.grib2 2026-05-07 09:04 451K
20260507T06Z_MSC_RDPS_DewPointDepression_IsbL-0950_RLatLon0.09_PT082H.grib2 2026-05-07 09:04 445K
20260507T06Z_MSC_RDPS_DewPointDepression_IsbL-0970_RLatLon0.09_PT082H.grib2 2026-05-07 09:04 442K
20260507T06Z_MSC_RDPS_DewPointDepression_IsbL-0985_RLatLon0.09_PT082H.grib2 2026-05-07 09:04 438K
20260507T06Z_MSC_RDPS_DewPointDepression_IsbL-1000_RLatLon0.09_PT082H.grib2 2026-05-07 09:04 432K
20260507T06Z_MSC_RDPS_DewPointDepression_IsbL-1015_RLatLon0.09_PT082H.grib2 2026-05-07 09:04 424K
20260507T06Z_MSC_RDPS_DewPoint_AGL-2m_RLatLon0.09_PT082H.grib2 2026-05-07 09:04 399K
20260507T06Z_MSC_RDPS_DownwardLongwaveRadiationFlux-Accum_Sfc_RLatLon0.09_PT082H.grib2 2026-05-07 09:04 441K
20260507T06Z_MSC_RDPS_DownwardShortwaveRadiationFlux-Accum_NTAtm_RLatLon0.09_PT082H.grib2 2026-05-07 09:04 111K
20260507T06Z_MSC_RDPS_DownwardShortwaveRadiationFlux-Accum_Sfc_RLatLon0.09_PT082H.grib2 2026-05-07 09:04 645K
20260507T06Z_MSC_RDPS_FreezingRain-Accum1h_Sfc_RLatLon0.09_PT082H.grib2 2026-05-07 09:04 49K
20260507T06Z_MSC_RDPS_FreezingRain-Accum_Sfc_RLatLon0.09_PT082H.grib2 2026-05-07 09:04 210K
20260507T06Z_MSC_RDPS_GeopotentialHeight_IsbL-0001_RLatLon0.09_PT082H.grib2 2026-05-07 09:04 246K
20260507T06Z_MSC_RDPS_GeopotentialHeight_IsbL-0005_RLatLon0.09_PT082H.grib2 2026-05-07 09:04 337K
20260507T06Z_MSC_RDPS_GeopotentialHeight_IsbL-0010_RLatLon0.09_PT082H.grib2 2026-05-07 09:04 306K
20260507T06Z_MSC_RDPS_GeopotentialHeight_IsbL-0020_RLatLon0.09_PT082H.grib2 2026-05-07 09:04 305K
20260507T06Z_MSC_RDPS_GeopotentialHeight_IsbL-0030_RLatLon0.09_PT082H.grib2 2026-05-07 09:04 307K
20260507T06Z_MSC_RDPS_GeopotentialHeight_IsbL-0050_RLatLon0.09_PT082H.grib2 2026-05-07 09:04 305K
20260507T06Z_MSC_RDPS_GeopotentialHeight_IsbL-0100_RLatLon0.09_PT082H.grib2 2026-05-07 09:04 282K
20260507T06Z_MSC_RDPS_GeopotentialHeight_IsbL-0150_RLatLon0.09_PT082H.grib2 2026-05-07 09:04 224K
20260507T06Z_MSC_RDPS_GeopotentialHeight_IsbL-0175_RLatLon0.09_PT082H.grib2 2026-05-07 09:04 226K
20260507T06Z_MSC_RDPS_GeopotentialHeight_IsbL-0200_RLatLon0.09_PT082H.grib2 2026-05-07 09:04 227K
20260507T06Z_MSC_RDPS_GeopotentialHeight_IsbL-0225_RLatLon0.09_PT082H.grib2 2026-05-07 09:04 229K
20260507T06Z_MSC_RDPS_GeopotentialHeight_IsbL-0250_RLatLon0.09_PT082H.grib2 2026-05-07 09:04 262K
20260507T06Z_MSC_RDPS_GeopotentialHeight_IsbL-0275_RLatLon0.09_PT082H.grib2 2026-05-07 09:04 231K
20260507T06Z_MSC_RDPS_GeopotentialHeight_IsbL-0300_RLatLon0.09_PT082H.grib2 2026-05-07 09:04 231K
20260507T06Z_MSC_RDPS_GeopotentialHeight_IsbL-0350_RLatLon0.09_PT082H.grib2 2026-05-07 09:04 227K
20260507T06Z_MSC_RDPS_GeopotentialHeight_IsbL-0400_RLatLon0.09_PT082H.grib2 2026-05-07 09:04 224K
20260507T06Z_MSC_RDPS_GeopotentialHeight_IsbL-0450_RLatLon0.09_PT082H.grib2 2026-05-07 09:04 291K
20260507T06Z_MSC_RDPS_GeopotentialHeight_IsbL-0500_RLatLon0.09_PT082H.grib2 2026-05-07 09:04 286K
20260507T06Z_MSC_RDPS_GeopotentialHeight_IsbL-0550_RLatLon0.09_PT082H.grib2 2026-05-07 09:04 282K
20260507T06Z_MSC_RDPS_GeopotentialHeight_IsbL-0600_RLatLon0.09_PT082H.grib2 2026-05-07 09:04 279K
20260507T06Z_MSC_RDPS_GeopotentialHeight_IsbL-0650_RLatLon0.09_PT082H.grib2 2026-05-07 09:04 251K
20260507T06Z_MSC_RDPS_GeopotentialHeight_IsbL-0700_RLatLon0.09_PT082H.grib2 2026-05-07 09:04 250K
20260507T06Z_MSC_RDPS_GeopotentialHeight_IsbL-0750_RLatLon0.09_PT082H.grib2 2026-05-07 09:04 255K
20260507T06Z_MSC_RDPS_GeopotentialHeight_IsbL-0800_RLatLon0.09_PT082H.grib2 2026-05-07 09:04 348K
20260507T06Z_MSC_RDPS_GeopotentialHeight_IsbL-0850_RLatLon0.09_PT082H.grib2 2026-05-07 09:04 360K
20260507T06Z_MSC_RDPS_GeopotentialHeight_IsbL-0875_RLatLon0.09_PT082H.grib2 2026-05-07 09:04 364K
20260507T06Z_MSC_RDPS_GeopotentialHeight_IsbL-0900_RLatLon0.09_PT082H.grib2 2026-05-07 09:04 367K
20260507T06Z_MSC_RDPS_GeopotentialHeight_IsbL-0925_RLatLon0.09_PT082H.grib2 2026-05-07 09:04 368K
20260507T06Z_MSC_RDPS_GeopotentialHeight_IsbL-0950_RLatLon0.09_PT082H.grib2 2026-05-07 09:04 373K
20260507T06Z_MSC_RDPS_GeopotentialHeight_IsbL-0970_RLatLon0.09_PT082H.grib2 2026-05-07 09:04 379K
20260507T06Z_MSC_RDPS_GeopotentialHeight_IsbL-0985_RLatLon0.09_PT082H.grib2 2026-05-07 09:04 389K
20260507T06Z_MSC_RDPS_GeopotentialHeight_IsbL-1000_RLatLon0.09_PT082H.grib2 2026-05-07 09:04 403K
20260507T06Z_MSC_RDPS_GeopotentialHeight_IsbL-1015_RLatLon0.09_PT082H.grib2 2026-05-07 09:04 420K
20260507T06Z_MSC_RDPS_HighLowPressure_MSL_RLatLon0.09_PT082H.json 2026-05-07 08:57 18K
20260507T06Z_MSC_RDPS_Humidex_Sfc_RLatLon0.09_PT082H.grib2 2026-05-07 09:04 2.4M
20260507T06Z_MSC_RDPS_IcePellets-Accum1h_Sfc_RLatLon0.09_PT082H.grib2 2026-05-07 09:04 15K
20260507T06Z_MSC_RDPS_IcePellets-Accum_Sfc_RLatLon0.09_PT082H.grib2 2026-05-07 09:04 35K
20260507T06Z_MSC_RDPS_KIndex_Sfc_RLatLon0.09_PT082H.grib2 2026-05-07 09:04 2.5M
20260507T06Z_MSC_RDPS_LatentHeatNetFlux_Sfc_RLatLon0.09_PT082H.grib2 2026-05-07 09:04 404K
20260507T06Z_MSC_RDPS_LiftedIndex-MU-VT_IsbL-0500_RLatLon0.09_PT082H.grib2 2026-05-07 09:04 2.4M
20260507T06Z_MSC_RDPS_NetLongwaveRadiationFlux-Accum_Sfc_RLatLon0.09_PT082H.grib2 2026-05-07 09:04 493K
20260507T06Z_MSC_RDPS_NetShortwaveRadiationFlux-Accum_Sfc_RLatLon0.09_PT082H.grib2 2026-05-07 09:04 648K
20260507T06Z_MSC_RDPS_PlanetaryBoundaryLayerHeight_Sfc_RLatLon0.09_PT082H.grib2 2026-05-07 09:04 1.0M
20260507T06Z_MSC_RDPS_Precip-Accum1h_Sfc_RLatLon0.09_PT082H.grib2 2026-05-07 09:04 1.2M
20260507T06Z_MSC_RDPS_Precip-Accum_Sfc_RLatLon0.09_PT082H.grib2 2026-05-07 09:04 2.1M
20260507T06Z_MSC_RDPS_PrecipRate_Sfc_RLatLon0.09_PT082H.grib2 2026-05-07 09:04 178K
20260507T06Z_MSC_RDPS_PrecipType-Instant_Sfc_RLatLon0.09_PT082H.grib2 2026-05-07 09:04 591K
20260507T06Z_MSC_RDPS_Pressure-Trend3h_Sfc_RLatLon0.09_PT082H.grib2 2026-05-07 09:04 1.2M
20260507T06Z_MSC_RDPS_Pressure_MSL_RLatLon0.09_PT082H.grib2 2026-05-07 09:04 329K
20260507T06Z_MSC_RDPS_Pressure_PVU-1.5_RLatLon0.09_PT082H.grib2 2026-05-07 09:04 2.5M
20260507T06Z_MSC_RDPS_Pressure_PVU-1_RLatLon0.09_PT082H.grib2 2026-05-07 09:04 2.4M
20260507T06Z_MSC_RDPS_Pressure_PVU-2_RLatLon0.09_PT082H.grib2 2026-05-07 09:04 2.4M
20260507T06Z_MSC_RDPS_Pressure_Sfc_RLatLon0.09_PT082H.grib2 2026-05-07 09:04 499K
20260507T06Z_MSC_RDPS_RadiativeTemp_Sfc_RLatLon0.09_PT082H.grib2 2026-05-07 09:04 321K
20260507T06Z_MSC_RDPS_Rain-Accum1h_Sfc_RLatLon0.09_PT082H.grib2 2026-05-07 09:04 637K
20260507T06Z_MSC_RDPS_Rain-Accum_Sfc_RLatLon0.09_PT082H.grib2 2026-05-07 09:04 1.9M
20260507T06Z_MSC_RDPS_RelativeHumidity_AGL-2m_RLatLon0.09_PT082H.grib2 2026-05-07 09:04 1.0M
20260507T06Z_MSC_RDPS_RelativeHumidity_IsbL-0010_RLatLon0.09_PT082H.grib2 2026-05-07 09:04 571K
20260507T06Z_MSC_RDPS_RelativeHumidity_IsbL-0020_RLatLon0.09_PT082H.grib2 2026-05-07 09:04 622K
20260507T06Z_MSC_RDPS_RelativeHumidity_IsbL-0030_RLatLon0.09_PT082H.grib2 2026-05-07 09:04 624K
20260507T06Z_MSC_RDPS_RelativeHumidity_IsbL-0050_RLatLon0.09_PT082H.grib2 2026-05-07 09:04 350K
20260507T06Z_MSC_RDPS_RelativeHumidity_IsbL-0100_RLatLon0.09_PT082H.grib2 2026-05-07 09:04 274K
20260507T06Z_MSC_RDPS_RelativeHumidity_IsbL-0150_RLatLon0.09_PT082H.grib2 2026-05-07 09:04 403K
20260507T06Z_MSC_RDPS_RelativeHumidity_IsbL-0175_RLatLon0.09_PT082H.grib2 2026-05-07 09:04 458K
20260507T06Z_MSC_RDPS_RelativeHumidity_IsbL-0200_RLatLon0.09_PT082H.grib2 2026-05-07 09:04 530K
20260507T06Z_MSC_RDPS_RelativeHumidity_IsbL-0225_RLatLon0.09_PT082H.grib2 2026-05-07 09:04 605K
20260507T06Z_MSC_RDPS_RelativeHumidity_IsbL-0250_RLatLon0.09_PT082H.grib2 2026-05-07 09:04 691K
20260507T06Z_MSC_RDPS_RelativeHumidity_IsbL-0275_RLatLon0.09_PT082H.grib2 2026-05-07 09:04 719K
20260507T06Z_MSC_RDPS_RelativeHumidity_IsbL-0300_RLatLon0.09_PT082H.grib2 2026-05-07 09:04 756K
20260507T06Z_MSC_RDPS_RelativeHumidity_IsbL-0350_RLatLon0.09_PT082H.grib2 2026-05-07 09:04 767K
20260507T06Z_MSC_RDPS_RelativeHumidity_IsbL-0400_RLatLon0.09_PT082H.grib2 2026-05-07 09:04 784K
20260507T06Z_MSC_RDPS_RelativeHumidity_IsbL-0450_RLatLon0.09_PT082H.grib2 2026-05-07 09:04 794K
20260507T06Z_MSC_RDPS_RelativeHumidity_IsbL-0500_RLatLon0.09_PT082H.grib2 2026-05-07 09:04 796K
20260507T06Z_MSC_RDPS_RelativeHumidity_IsbL-0550_RLatLon0.09_PT082H.grib2 2026-05-07 09:04 810K
20260507T06Z_MSC_RDPS_RelativeHumidity_IsbL-0600_RLatLon0.09_PT082H.grib2 2026-05-07 09:04 831K
20260507T06Z_MSC_RDPS_RelativeHumidity_IsbL-0650_RLatLon0.09_PT082H.grib2 2026-05-07 09:04 847K
20260507T06Z_MSC_RDPS_RelativeHumidity_IsbL-0700_RLatLon0.09_PT082H.grib2 2026-05-07 09:04 882K
20260507T06Z_MSC_RDPS_RelativeHumidity_IsbL-0750_RLatLon0.09_PT082H.grib2 2026-05-07 09:04 924K
20260507T06Z_MSC_RDPS_RelativeHumidity_IsbL-0800_RLatLon0.09_PT082H.grib2 2026-05-07 09:04 1.0M
20260507T06Z_MSC_RDPS_RelativeHumidity_IsbL-0850_RLatLon0.09_PT082H.grib2 2026-05-07 09:04 1.0M
20260507T06Z_MSC_RDPS_RelativeHumidity_IsbL-0875_RLatLon0.09_PT082H.grib2 2026-05-07 09:04 1.1M
20260507T06Z_MSC_RDPS_RelativeHumidity_IsbL-0900_RLatLon0.09_PT082H.grib2 2026-05-07 09:04 1.1M
20260507T06Z_MSC_RDPS_RelativeHumidity_IsbL-0925_RLatLon0.09_PT082H.grib2 2026-05-07 09:04 1.1M
20260507T06Z_MSC_RDPS_RelativeHumidity_IsbL-0950_RLatLon0.09_PT082H.grib2 2026-05-07 09:04 1.1M
20260507T06Z_MSC_RDPS_RelativeHumidity_IsbL-0970_RLatLon0.09_PT082H.grib2 2026-05-07 09:04 1.1M
20260507T06Z_MSC_RDPS_RelativeHumidity_IsbL-0985_RLatLon0.09_PT082H.grib2 2026-05-07 09:04 1.0M
20260507T06Z_MSC_RDPS_RelativeHumidity_IsbL-1000_RLatLon0.09_PT082H.grib2 2026-05-07 09:04 1.0M
20260507T06Z_MSC_RDPS_RelativeHumidity_IsbL-1015_RLatLon0.09_PT082H.grib2 2026-05-07 09:04 1.0M
20260507T06Z_MSC_RDPS_Runoff-Accum_Sfc_RLatLon0.09_PT082H.grib2 2026-05-07 09:04 50K
20260507T06Z_MSC_RDPS_SWEATIndex_Sfc_RLatLon0.09_PT082H.grib2 2026-05-07 09:04 2.5M
20260507T06Z_MSC_RDPS_SeeingIndex_EAtm_RLatLon0.09_PT082H.grib2 2026-05-07 09:04 1.1M
20260507T06Z_MSC_RDPS_SensibleHeatNetFlux_Sfc_RLatLon0.09_PT082H.grib2 2026-05-07 09:04 364K
20260507T06Z_MSC_RDPS_ShowalterIndex_IsbL-0500_RLatLon0.09_PT082H.grib2 2026-05-07 09:04 2.6M
20260507T06Z_MSC_RDPS_SkyTransparencyIndex_EAtm_RLatLon0.09_PT082H.grib2 2026-05-07 09:04 697K
20260507T06Z_MSC_RDPS_Snow-Accum1h_Sfc_RLatLon0.09_PT082H.grib2 2026-05-07 09:04 509K
20260507T06Z_MSC_RDPS_Snow-Accum_Sfc_RLatLon0.09_PT082H.grib2 2026-05-07 09:04 700K
20260507T06Z_MSC_RDPS_SnowDensity_Sfc_RLatLon0.09_PT082H.grib2 2026-05-07 09:04 173K
20260507T06Z_MSC_RDPS_SnowDepth_Sfc_RLatLon0.09_PT082H.grib2 2026-05-07 09:04 624K
20260507T06Z_MSC_RDPS_SoilTemp_DBS-0to10cm_RLatLon0.09_PT082H.grib2 2026-05-07 09:04 244K
20260507T06Z_MSC_RDPS_SoilTemp_Sfc_RLatLon0.09_PT082H.grib2 2026-05-07 09:04 295K
20260507T06Z_MSC_RDPS_SoilVolumetricIceContent_Sfc_RLatLon0.09_PT082H.grib2 2026-05-07 09:04 143K
20260507T06Z_MSC_RDPS_SoilVolumetricWaterContent_DBS-0to10cm_RLatLon0.09_PT082H.grib2 2026-05-07 09:04 293K
20260507T06Z_MSC_RDPS_SoilVolumetricWaterContent_DBS-0to1cm_RLatLon0.09_PT082H.grib2 2026-05-07 09:04 342K
20260507T06Z_MSC_RDPS_SpecificHumidity_AGL-120m_RLatLon0.09_PT082H.grib2 2026-05-07 09:04 514K
20260507T06Z_MSC_RDPS_SpecificHumidity_AGL-2m_RLatLon0.09_PT082H.grib2 2026-05-07 09:04 683K
20260507T06Z_MSC_RDPS_SpecificHumidity_AGL-40m_RLatLon0.09_PT082H.grib2 2026-05-07 09:04 517K
20260507T06Z_MSC_RDPS_SpecificHumidity_AGL-80m_RLatLon0.09_PT082H.grib2 2026-05-07 09:04 515K
20260507T06Z_MSC_RDPS_SpecificHumidity_IsbL-0001_RLatLon0.09_PT082H.grib2 2026-05-07 09:04 363K
20260507T06Z_MSC_RDPS_SpecificHumidity_IsbL-0005_RLatLon0.09_PT082H.grib2 2026-05-07 09:04 360K
20260507T06Z_MSC_RDPS_SpecificHumidity_IsbL-0010_RLatLon0.09_PT082H.grib2 2026-05-07 09:04 387K
20260507T06Z_MSC_RDPS_SpecificHumidity_IsbL-0020_RLatLon0.09_PT082H.grib2 2026-05-07 09:04 483K
20260507T06Z_MSC_RDPS_SpecificHumidity_IsbL-0030_RLatLon0.09_PT082H.grib2 2026-05-07 09:04 363K
20260507T06Z_MSC_RDPS_SpecificHumidity_IsbL-0050_RLatLon0.09_PT082H.grib2 2026-05-07 09:04 361K
20260507T06Z_MSC_RDPS_SpecificHumidity_IsbL-0100_RLatLon0.09_PT082H.grib2 2026-05-07 09:04 399K
20260507T06Z_MSC_RDPS_SpecificHumidity_IsbL-0150_RLatLon0.09_PT082H.grib2 2026-05-07 09:04 467K
20260507T06Z_MSC_RDPS_SpecificHumidity_IsbL-0175_RLatLon0.09_PT082H.grib2 2026-05-07 09:04 422K
20260507T06Z_MSC_RDPS_SpecificHumidity_IsbL-0200_RLatLon0.09_PT082H.grib2 2026-05-07 09:04 440K
20260507T06Z_MSC_RDPS_SpecificHumidity_IsbL-0225_RLatLon0.09_PT082H.grib2 2026-05-07 09:04 447K
20260507T06Z_MSC_RDPS_SpecificHumidity_IsbL-0250_RLatLon0.09_PT082H.grib2 2026-05-07 09:04 562K
20260507T06Z_MSC_RDPS_SpecificHumidity_IsbL-0275_RLatLon0.09_PT082H.grib2 2026-05-07 09:04 476K
20260507T06Z_MSC_RDPS_SpecificHumidity_IsbL-0300_RLatLon0.09_PT082H.grib2 2026-05-07 09:04 447K
20260507T06Z_MSC_RDPS_SpecificHumidity_IsbL-0350_RLatLon0.09_PT082H.grib2 2026-05-07 09:04 439K
20260507T06Z_MSC_RDPS_SpecificHumidity_IsbL-0400_RLatLon0.09_PT082H.grib2 2026-05-07 09:04 523K
20260507T06Z_MSC_RDPS_SpecificHumidity_IsbL-0450_RLatLon0.09_PT082H.grib2 2026-05-07 09:04 578K
20260507T06Z_MSC_RDPS_SpecificHumidity_IsbL-0500_RLatLon0.09_PT082H.grib2 2026-05-07 09:04 513K
20260507T06Z_MSC_RDPS_SpecificHumidity_IsbL-0550_RLatLon0.09_PT082H.grib2 2026-05-07 09:04 568K
20260507T06Z_MSC_RDPS_SpecificHumidity_IsbL-0600_RLatLon0.09_PT082H.grib2 2026-05-07 09:04 638K
20260507T06Z_MSC_RDPS_SpecificHumidity_IsbL-0650_RLatLon0.09_PT082H.grib2 2026-05-07 09:04 558K
20260507T06Z_MSC_RDPS_SpecificHumidity_IsbL-0700_RLatLon0.09_PT082H.grib2 2026-05-07 09:04 605K
20260507T06Z_MSC_RDPS_SpecificHumidity_IsbL-0750_RLatLon0.09_PT082H.grib2 2026-05-07 09:04 666K
20260507T06Z_MSC_RDPS_SpecificHumidity_IsbL-0800_RLatLon0.09_PT082H.grib2 2026-05-07 09:04 760K
20260507T06Z_MSC_RDPS_SpecificHumidity_IsbL-0850_RLatLon0.09_PT082H.grib2 2026-05-07 09:04 828K
20260507T06Z_MSC_RDPS_SpecificHumidity_IsbL-0875_RLatLon0.09_PT082H.grib2 2026-05-07 09:04 848K
20260507T06Z_MSC_RDPS_SpecificHumidity_IsbL-0900_RLatLon0.09_PT082H.grib2 2026-05-07 09:04 857K
20260507T06Z_MSC_RDPS_SpecificHumidity_IsbL-0925_RLatLon0.09_PT082H.grib2 2026-05-07 09:04 721K
20260507T06Z_MSC_RDPS_SpecificHumidity_IsbL-0950_RLatLon0.09_PT082H.grib2 2026-05-07 09:04 724K
20260507T06Z_MSC_RDPS_SpecificHumidity_IsbL-0970_RLatLon0.09_PT082H.grib2 2026-05-07 09:04 721K
20260507T06Z_MSC_RDPS_SpecificHumidity_IsbL-0985_RLatLon0.09_PT082H.grib2 2026-05-07 09:04 716K
20260507T06Z_MSC_RDPS_SpecificHumidity_IsbL-1000_RLatLon0.09_PT082H.grib2 2026-05-07 09:04 712K
20260507T06Z_MSC_RDPS_SpecificHumidity_IsbL-1015_RLatLon0.09_PT082H.grib2 2026-05-07 09:04 700K
20260507T06Z_MSC_RDPS_SpecificHumidity_Sfc_RLatLon0.09_PT082H.grib2 2026-05-07 09:04 333K
20260507T06Z_MSC_RDPS_StormRelativeHelicity_EtaL-10000_RLatLon0.09_PT082H.grib2 2026-05-07 09:04 1.2M
20260507T06Z_MSC_RDPS_StormSeverityIndex_EtaL-10000_RLatLon0.09_PT082H.grib2 2026-05-07 09:04 1.2M
20260507T06Z_MSC_RDPS_Thickness_IsbL-0850to0700_RLatLon0.09_PT082H.grib2 2026-05-07 09:04 248K
20260507T06Z_MSC_RDPS_Thickness_IsbL-1000to0500_RLatLon0.09_PT082H.grib2 2026-05-07 09:04 196K
20260507T06Z_MSC_RDPS_Thickness_IsbL-1000to0850_RLatLon0.09_PT082H.grib2 2026-05-07 09:04 267K
20260507T06Z_MSC_RDPS_TotalCloudCover_Sfc_RLatLon0.09_PT082H.grib2 2026-05-07 09:04 667K
20260507T06Z_MSC_RDPS_TotalTotalsIndex_Sfc_RLatLon0.09_PT082H.grib2 2026-05-07 09:04 2.5M
20260507T06Z_MSC_RDPS_UVIndex-ClearSky_Sfc_RLatLon0.09_PT082H.grib2 2026-05-07 09:04 210K
20260507T06Z_MSC_RDPS_UVIndex_Sfc_RLatLon0.09_PT082H.grib2 2026-05-07 09:04 508K
20260507T06Z_MSC_RDPS_UpwardLongwaveRadiationFlux_NTAtm_RLatLon0.09_PT082H.grib2 2026-05-07 09:04 491K
20260507T06Z_MSC_RDPS_UpwardShortwaveRadiationFlux_NTAtm_RLatLon0.09_PT082H.grib2 2026-05-07 09:04 546K
20260507T06Z_MSC_RDPS_VerticalVelocity_IsbL-0250_RLatLon0.09_PT082H.grib2 2026-05-07 09:04 538K
20260507T06Z_MSC_RDPS_VerticalVelocity_IsbL-0500_RLatLon0.09_PT082H.grib2 2026-05-07 09:04 529K
20260507T06Z_MSC_RDPS_VerticalVelocity_IsbL-0700_RLatLon0.09_PT082H.grib2 2026-05-07 09:04 588K
20260507T06Z_MSC_RDPS_VerticalVelocity_IsbL-0850_RLatLon0.09_PT082H.grib2 2026-05-07 09:04 698K
20260507T06Z_MSC_RDPS_VerticalWindShear_EtaL-6500_RLatLon0.09_PT082H.grib2 2026-05-07 09:04 1.2M
20260507T06Z_MSC_RDPS_WindChill_Sfc_RLatLon0.09_PT082H.grib2 2026-05-07 09:04 1.2M
20260507T06Z_MSC_RDPS_WindDir_AGL-10m_RLatLon0.09_PT082H.grib2 2026-05-07 09:04 969K
20260507T06Z_MSC_RDPS_WindDir_AGL-120m_RLatLon0.09_PT082H.grib2 2026-05-07 09:04 616K
20260507T06Z_MSC_RDPS_WindDir_AGL-40m_RLatLon0.09_PT082H.grib2 2026-05-07 09:04 638K
20260507T06Z_MSC_RDPS_WindDir_AGL-80m_RLatLon0.09_PT082H.grib2 2026-05-07 09:04 625K
20260507T06Z_MSC_RDPS_WindDir_IsbL-0001_RLatLon0.09_PT082H.grib2 2026-05-07 09:04 271K
20260507T06Z_MSC_RDPS_WindDir_IsbL-0005_RLatLon0.09_PT082H.grib2 2026-05-07 09:04 368K
20260507T06Z_MSC_RDPS_WindDir_IsbL-0010_RLatLon0.09_PT082H.grib2 2026-05-07 09:04 373K
20260507T06Z_MSC_RDPS_WindDir_IsbL-0020_RLatLon0.09_PT082H.grib2 2026-05-07 09:04 415K
20260507T06Z_MSC_RDPS_WindDir_IsbL-0030_RLatLon0.09_PT082H.grib2 2026-05-07 09:04 405K
20260507T06Z_MSC_RDPS_WindDir_IsbL-0050_RLatLon0.09_PT082H.grib2 2026-05-07 09:04 442K
20260507T06Z_MSC_RDPS_WindDir_IsbL-0100_RLatLon0.09_PT082H.grib2 2026-05-07 09:04 419K
20260507T06Z_MSC_RDPS_WindDir_IsbL-0150_RLatLon0.09_PT082H.grib2 2026-05-07 09:04 406K
20260507T06Z_MSC_RDPS_WindDir_IsbL-0175_RLatLon0.09_PT082H.grib2 2026-05-07 09:04 431K
20260507T06Z_MSC_RDPS_WindDir_IsbL-0200_RLatLon0.09_PT082H.grib2 2026-05-07 09:04 449K
20260507T06Z_MSC_RDPS_WindDir_IsbL-0225_RLatLon0.09_PT082H.grib2 2026-05-07 09:04 458K
20260507T06Z_MSC_RDPS_WindDir_IsbL-0250_RLatLon0.09_PT082H.grib2 2026-05-07 09:04 461K
20260507T06Z_MSC_RDPS_WindDir_IsbL-0275_RLatLon0.09_PT082H.grib2 2026-05-07 09:04 485K
20260507T06Z_MSC_RDPS_WindDir_IsbL-0300_RLatLon0.09_PT082H.grib2 2026-05-07 09:04 483K
20260507T06Z_MSC_RDPS_WindDir_IsbL-0350_RLatLon0.09_PT082H.grib2 2026-05-07 09:04 500K
20260507T06Z_MSC_RDPS_WindDir_IsbL-0400_RLatLon0.09_PT082H.grib2 2026-05-07 09:04 518K
20260507T06Z_MSC_RDPS_WindDir_IsbL-0450_RLatLon0.09_PT082H.grib2 2026-05-07 09:04 537K
20260507T06Z_MSC_RDPS_WindDir_IsbL-0500_RLatLon0.09_PT082H.grib2 2026-05-07 09:04 555K
20260507T06Z_MSC_RDPS_WindDir_IsbL-0550_RLatLon0.09_PT082H.grib2 2026-05-07 09:04 570K
20260507T06Z_MSC_RDPS_WindDir_IsbL-0600_RLatLon0.09_PT082H.grib2 2026-05-07 09:04 588K
20260507T06Z_MSC_RDPS_WindDir_IsbL-0650_RLatLon0.09_PT082H.grib2 2026-05-07 09:04 626K
20260507T06Z_MSC_RDPS_WindDir_IsbL-0700_RLatLon0.09_PT082H.grib2 2026-05-07 09:04 666K
20260507T06Z_MSC_RDPS_WindDir_IsbL-0750_RLatLon0.09_PT082H.grib2 2026-05-07 09:04 713K
20260507T06Z_MSC_RDPS_WindDir_IsbL-0800_RLatLon0.09_PT082H.grib2 2026-05-07 09:04 783K
20260507T06Z_MSC_RDPS_WindDir_IsbL-0850_RLatLon0.09_PT082H.grib2 2026-05-07 09:04 860K
20260507T06Z_MSC_RDPS_WindDir_IsbL-0875_RLatLon0.09_PT082H.grib2 2026-05-07 09:04 887K
20260507T06Z_MSC_RDPS_WindDir_IsbL-0900_RLatLon0.09_PT082H.grib2 2026-05-07 09:04 905K
20260507T06Z_MSC_RDPS_WindDir_IsbL-0925_RLatLon0.09_PT082H.grib2 2026-05-07 09:04 915K
20260507T06Z_MSC_RDPS_WindDir_IsbL-0950_RLatLon0.09_PT082H.grib2 2026-05-07 09:04 914K
20260507T06Z_MSC_RDPS_WindDir_IsbL-0970_RLatLon0.09_PT082H.grib2 2026-05-07 09:04 917K
20260507T06Z_MSC_RDPS_WindDir_IsbL-0985_RLatLon0.09_PT082H.grib2 2026-05-07 09:04 928K
20260507T06Z_MSC_RDPS_WindDir_IsbL-1000_RLatLon0.09_PT082H.grib2 2026-05-07 09:04 947K
20260507T06Z_MSC_RDPS_WindDir_IsbL-1015_RLatLon0.09_PT082H.grib2 2026-05-07 09:04 962K
20260507T06Z_MSC_RDPS_WindGust-Max_AGL-10m_RLatLon0.09_PT082H.grib2 2026-05-07 09:04 1.0M
20260507T06Z_MSC_RDPS_WindGust-Min_AGL-10m_RLatLon0.09_PT082H.grib2 2026-05-07 09:04 1.0M
20260507T06Z_MSC_RDPS_WindGust_AGL-10m_RLatLon0.09_PT082H.grib2 2026-05-07 09:04 1.0M
20260507T06Z_MSC_RDPS_WindSpeed_AGL-10m_RLatLon0.09_PT082H.grib2 2026-05-07 09:04 1.0M
20260507T06Z_MSC_RDPS_WindSpeed_AGL-120m_RLatLon0.09_PT082H.grib2 2026-05-07 09:04 672K
20260507T06Z_MSC_RDPS_WindSpeed_AGL-40m_RLatLon0.09_PT082H.grib2 2026-05-07 09:04 675K
20260507T06Z_MSC_RDPS_WindSpeed_AGL-80m_RLatLon0.09_PT082H.grib2 2026-05-07 09:04 672K
20260507T06Z_MSC_RDPS_WindSpeed_IsbL-0001_RLatLon0.09_PT082H.grib2 2026-05-07 09:04 255K
20260507T06Z_MSC_RDPS_WindSpeed_IsbL-0005_RLatLon0.09_PT082H.grib2 2026-05-07 09:04 346K
20260507T06Z_MSC_RDPS_WindSpeed_IsbL-0010_RLatLon0.09_PT082H.grib2 2026-05-07 09:04 393K
20260507T06Z_MSC_RDPS_WindSpeed_IsbL-0020_RLatLon0.09_PT082H.grib2 2026-05-07 09:04 322K
20260507T06Z_MSC_RDPS_WindSpeed_IsbL-0030_RLatLon0.09_PT082H.grib2 2026-05-07 09:04 318K
20260507T06Z_MSC_RDPS_WindSpeed_IsbL-0050_RLatLon0.09_PT082H.grib2 2026-05-07 09:04 445K
20260507T06Z_MSC_RDPS_WindSpeed_IsbL-0100_RLatLon0.09_PT082H.grib2 2026-05-07 09:04 473K
20260507T06Z_MSC_RDPS_WindSpeed_IsbL-0150_RLatLon0.09_PT082H.grib2 2026-05-07 09:04 367K
20260507T06Z_MSC_RDPS_WindSpeed_IsbL-0175_RLatLon0.09_PT082H.grib2 2026-05-07 09:04 393K
20260507T06Z_MSC_RDPS_WindSpeed_IsbL-0200_RLatLon0.09_PT082H.grib2 2026-05-07 09:04 410K
20260507T06Z_MSC_RDPS_WindSpeed_IsbL-0225_RLatLon0.09_PT082H.grib2 2026-05-07 09:04 439K
20260507T06Z_MSC_RDPS_WindSpeed_IsbL-0250_RLatLon0.09_PT082H.grib2 2026-05-07 09:04 445K
20260507T06Z_MSC_RDPS_WindSpeed_IsbL-0275_RLatLon0.09_PT082H.grib2 2026-05-07 09:04 464K
20260507T06Z_MSC_RDPS_WindSpeed_IsbL-0300_RLatLon0.09_PT082H.grib2 2026-05-07 09:04 461K
20260507T06Z_MSC_RDPS_WindSpeed_IsbL-0350_RLatLon0.09_PT082H.grib2 2026-05-07 09:04 470K
20260507T06Z_MSC_RDPS_WindSpeed_IsbL-0400_RLatLon0.09_PT082H.grib2 2026-05-07 09:04 474K
20260507T06Z_MSC_RDPS_WindSpeed_IsbL-0450_RLatLon0.09_PT082H.grib2 2026-05-07 09:04 459K
20260507T06Z_MSC_RDPS_WindSpeed_IsbL-0500_RLatLon0.09_PT082H.grib2 2026-05-07 09:04 460K
20260507T06Z_MSC_RDPS_WindSpeed_IsbL-0550_RLatLon0.09_PT082H.grib2 2026-05-07 09:04 576K
20260507T06Z_MSC_RDPS_WindSpeed_IsbL-0600_RLatLon0.09_PT082H.grib2 2026-05-07 09:04 586K
20260507T06Z_MSC_RDPS_WindSpeed_IsbL-0650_RLatLon0.09_PT082H.grib2 2026-05-07 09:04 604K
20260507T06Z_MSC_RDPS_WindSpeed_IsbL-0700_RLatLon0.09_PT082H.grib2 2026-05-07 09:04 628K
20260507T06Z_MSC_RDPS_WindSpeed_IsbL-0750_RLatLon0.09_PT082H.grib2 2026-05-07 09:04 707K
20260507T06Z_MSC_RDPS_WindSpeed_IsbL-0800_RLatLon0.09_PT082H.grib2 2026-05-07 09:04 752K
20260507T06Z_MSC_RDPS_WindSpeed_IsbL-0850_RLatLon0.09_PT082H.grib2 2026-05-07 09:04 814K
20260507T06Z_MSC_RDPS_WindSpeed_IsbL-0875_RLatLon0.09_PT082H.grib2 2026-05-07 09:04 836K
20260507T06Z_MSC_RDPS_WindSpeed_IsbL-0900_RLatLon0.09_PT082H.grib2 2026-05-07 09:04 851K
20260507T06Z_MSC_RDPS_WindSpeed_IsbL-0925_RLatLon0.09_PT082H.grib2 2026-05-07 09:04 863K
20260507T06Z_MSC_RDPS_WindSpeed_IsbL-0950_RLatLon0.09_PT082H.grib2 2026-05-07 09:04 863K
20260507T06Z_MSC_RDPS_WindSpeed_IsbL-0970_RLatLon0.09_PT082H.grib2 2026-05-07 09:04 860K
20260507T06Z_MSC_RDPS_WindSpeed_IsbL-0985_RLatLon0.09_PT082H.grib2 2026-05-07 09:04 857K
20260507T06Z_MSC_RDPS_WindSpeed_IsbL-1000_RLatLon0.09_PT082H.grib2 2026-05-07 09:04 854K
20260507T06Z_MSC_RDPS_WindSpeed_IsbL-1015_RLatLon0.09_PT082H.grib2 2026-05-07 09:04 1.0M
20260507T06Z_MSC_RDPS_WindU_AGL-10m_RLatLon0.09_PT082H.grib2 2026-05-07 09:04 438K
20260507T06Z_MSC_RDPS_WindU_AGL-120m_RLatLon0.09_PT082H.grib2 2026-05-07 09:04 539K
20260507T06Z_MSC_RDPS_WindU_AGL-40m_RLatLon0.09_PT082H.grib2 2026-05-07 09:04 542K
20260507T06Z_MSC_RDPS_WindU_AGL-80m_RLatLon0.09_PT082H.grib2 2026-05-07 09:04 540K
20260507T06Z_MSC_RDPS_WindU_IsbL-0001_RLatLon0.09_PT082H.grib2 2026-05-07 09:04 246K
20260507T06Z_MSC_RDPS_WindU_IsbL-0005_RLatLon0.09_PT082H.grib2 2026-05-07 09:04 283K
20260507T06Z_MSC_RDPS_WindU_IsbL-0010_RLatLon0.09_PT082H.grib2 2026-05-07 09:04 294K
20260507T06Z_MSC_RDPS_WindU_IsbL-0020_RLatLon0.09_PT082H.grib2 2026-05-07 09:04 351K
20260507T06Z_MSC_RDPS_WindU_IsbL-0030_RLatLon0.09_PT082H.grib2 2026-05-07 09:04 309K
20260507T06Z_MSC_RDPS_WindU_IsbL-0050_RLatLon0.09_PT082H.grib2 2026-05-07 09:04 337K
20260507T06Z_MSC_RDPS_WindU_IsbL-0100_RLatLon0.09_PT082H.grib2 2026-05-07 09:04 427K
20260507T06Z_MSC_RDPS_WindU_IsbL-0150_RLatLon0.09_PT082H.grib2 2026-05-07 09:04 359K
20260507T06Z_MSC_RDPS_WindU_IsbL-0175_RLatLon0.09_PT082H.grib2 2026-05-07 09:04 407K
20260507T06Z_MSC_RDPS_WindU_IsbL-0200_RLatLon0.09_PT082H.grib2 2026-05-07 09:04 423K
20260507T06Z_MSC_RDPS_WindU_IsbL-0225_RLatLon0.09_PT082H.grib2 2026-05-07 09:04 430K
20260507T06Z_MSC_RDPS_WindU_IsbL-0250_RLatLon0.09_PT082H.grib2 2026-05-07 09:04 336K
20260507T06Z_MSC_RDPS_WindU_IsbL-0275_RLatLon0.09_PT082H.grib2 2026-05-07 09:04 352K
20260507T06Z_MSC_RDPS_WindU_IsbL-0300_RLatLon0.09_PT082H.grib2 2026-05-07 09:04 348K
20260507T06Z_MSC_RDPS_WindU_IsbL-0350_RLatLon0.09_PT082H.grib2 2026-05-07 09:04 355K
20260507T06Z_MSC_RDPS_WindU_IsbL-0400_RLatLon0.09_PT082H.grib2 2026-05-07 09:04 462K
20260507T06Z_MSC_RDPS_WindU_IsbL-0450_RLatLon0.09_PT082H.grib2 2026-05-07 09:04 465K
20260507T06Z_MSC_RDPS_WindU_IsbL-0500_RLatLon0.09_PT082H.grib2 2026-05-07 09:04 466K
20260507T06Z_MSC_RDPS_WindU_IsbL-0550_RLatLon0.09_PT082H.grib2 2026-05-07 09:04 467K
20260507T06Z_MSC_RDPS_WindU_IsbL-0600_RLatLon0.09_PT082H.grib2 2026-05-07 09:04 458K
20260507T06Z_MSC_RDPS_WindU_IsbL-0650_RLatLon0.09_PT082H.grib2 2026-05-07 09:04 474K
20260507T06Z_MSC_RDPS_WindU_IsbL-0700_RLatLon0.09_PT082H.grib2 2026-05-07 09:04 498K
20260507T06Z_MSC_RDPS_WindU_IsbL-0750_RLatLon0.09_PT082H.grib2 2026-05-07 09:04 653K
20260507T06Z_MSC_RDPS_WindU_IsbL-0800_RLatLon0.09_PT082H.grib2 2026-05-07 09:04 575K
20260507T06Z_MSC_RDPS_WindU_IsbL-0850_RLatLon0.09_PT082H.grib2 2026-05-07 09:04 762K
20260507T06Z_MSC_RDPS_WindU_IsbL-0875_RLatLon0.09_PT082H.grib2 2026-05-07 09:04 782K
20260507T06Z_MSC_RDPS_WindU_IsbL-0900_RLatLon0.09_PT082H.grib2 2026-05-07 09:04 795K
20260507T06Z_MSC_RDPS_WindU_IsbL-0925_RLatLon0.09_PT082H.grib2 2026-05-07 09:04 803K
20260507T06Z_MSC_RDPS_WindU_IsbL-0950_RLatLon0.09_PT082H.grib2 2026-05-07 09:04 800K
20260507T06Z_MSC_RDPS_WindU_IsbL-0970_RLatLon0.09_PT082H.grib2 2026-05-07 09:04 797K
20260507T06Z_MSC_RDPS_WindU_IsbL-0985_RLatLon0.09_PT082H.grib2 2026-05-07 09:04 795K
20260507T06Z_MSC_RDPS_WindU_IsbL-1000_RLatLon0.09_PT082H.grib2 2026-05-07 09:04 839K
20260507T06Z_MSC_RDPS_WindU_IsbL-1015_RLatLon0.09_PT082H.grib2 2026-05-07 09:04 835K
20260507T06Z_MSC_RDPS_WindV_AGL-10m_RLatLon0.09_PT082H.grib2 2026-05-07 09:04 436K
20260507T06Z_MSC_RDPS_WindV_AGL-120m_RLatLon0.09_PT082H.grib2 2026-05-07 09:04 537K
20260507T06Z_MSC_RDPS_WindV_AGL-40m_RLatLon0.09_PT082H.grib2 2026-05-07 09:04 539K
20260507T06Z_MSC_RDPS_WindV_AGL-80m_RLatLon0.09_PT082H.grib2 2026-05-07 09:04 537K
20260507T06Z_MSC_RDPS_WindV_IsbL-0001_RLatLon0.09_PT082H.grib2 2026-05-07 09:04 248K
20260507T06Z_MSC_RDPS_WindV_IsbL-0005_RLatLon0.09_PT082H.grib2 2026-05-07 09:04 283K
20260507T06Z_MSC_RDPS_WindV_IsbL-0010_RLatLon0.09_PT082H.grib2 2026-05-07 09:04 295K
20260507T06Z_MSC_RDPS_WindV_IsbL-0020_RLatLon0.09_PT082H.grib2 2026-05-07 09:04 313K
20260507T06Z_MSC_RDPS_WindV_IsbL-0030_RLatLon0.09_PT082H.grib2 2026-05-07 09:04 311K
20260507T06Z_MSC_RDPS_WindV_IsbL-0050_RLatLon0.09_PT082H.grib2 2026-05-07 09:04 335K
20260507T06Z_MSC_RDPS_WindV_IsbL-0100_RLatLon0.09_PT082H.grib2 2026-05-07 09:04 424K
20260507T06Z_MSC_RDPS_WindV_IsbL-0150_RLatLon0.09_PT082H.grib2 2026-05-07 09:04 381K
20260507T06Z_MSC_RDPS_WindV_IsbL-0175_RLatLon0.09_PT082H.grib2 2026-05-07 09:04 406K
20260507T06Z_MSC_RDPS_WindV_IsbL-0200_RLatLon0.09_PT082H.grib2 2026-05-07 09:04 326K
20260507T06Z_MSC_RDPS_WindV_IsbL-0225_RLatLon0.09_PT082H.grib2 2026-05-07 09:04 332K
20260507T06Z_MSC_RDPS_WindV_IsbL-0250_RLatLon0.09_PT082H.grib2 2026-05-07 09:04 360K
20260507T06Z_MSC_RDPS_WindV_IsbL-0275_RLatLon0.09_PT082H.grib2 2026-05-07 09:04 375K
20260507T06Z_MSC_RDPS_WindV_IsbL-0300_RLatLon0.09_PT082H.grib2 2026-05-07 09:04 371K
20260507T06Z_MSC_RDPS_WindV_IsbL-0350_RLatLon0.09_PT082H.grib2 2026-05-07 09:04 354K
20260507T06Z_MSC_RDPS_WindV_IsbL-0400_RLatLon0.09_PT082H.grib2 2026-05-07 09:04 358K
20260507T06Z_MSC_RDPS_WindV_IsbL-0450_RLatLon0.09_PT082H.grib2 2026-05-07 09:04 359K
20260507T06Z_MSC_RDPS_WindV_IsbL-0500_RLatLon0.09_PT082H.grib2 2026-05-07 09:04 462K
20260507T06Z_MSC_RDPS_WindV_IsbL-0550_RLatLon0.09_PT082H.grib2 2026-05-07 09:04 463K
20260507T06Z_MSC_RDPS_WindV_IsbL-0600_RLatLon0.09_PT082H.grib2 2026-05-07 09:04 471K
20260507T06Z_MSC_RDPS_WindV_IsbL-0650_RLatLon0.09_PT082H.grib2 2026-05-07 09:04 488K
20260507T06Z_MSC_RDPS_WindV_IsbL-0700_RLatLon0.09_PT082H.grib2 2026-05-07 09:04 492K
20260507T06Z_MSC_RDPS_WindV_IsbL-0750_RLatLon0.09_PT082H.grib2 2026-05-07 09:04 523K
20260507T06Z_MSC_RDPS_WindV_IsbL-0800_RLatLon0.09_PT082H.grib2 2026-05-07 09:04 571K
20260507T06Z_MSC_RDPS_WindV_IsbL-0850_RLatLon0.09_PT082H.grib2 2026-05-07 09:04 623K
20260507T06Z_MSC_RDPS_WindV_IsbL-0875_RLatLon0.09_PT082H.grib2 2026-05-07 09:04 641K
20260507T06Z_MSC_RDPS_WindV_IsbL-0900_RLatLon0.09_PT082H.grib2 2026-05-07 09:04 654K
20260507T06Z_MSC_RDPS_WindV_IsbL-0925_RLatLon0.09_PT082H.grib2 2026-05-07 09:04 661K
20260507T06Z_MSC_RDPS_WindV_IsbL-0950_RLatLon0.09_PT082H.grib2 2026-05-07 09:04 799K
20260507T06Z_MSC_RDPS_WindV_IsbL-0970_RLatLon0.09_PT082H.grib2 2026-05-07 09:04 795K
20260507T06Z_MSC_RDPS_WindV_IsbL-0985_RLatLon0.09_PT082H.grib2 2026-05-07 09:04 792K
20260507T06Z_MSC_RDPS_WindV_IsbL-1000_RLatLon0.09_PT082H.grib2 2026-05-07 09:04 836K
20260507T06Z_MSC_RDPS_WindV_IsbL-1015_RLatLon0.09_PT082H.grib2 2026-05-07 09:04 831K